Time,TemperatureF,DewpointF,PressureIn,WindDirection,WindDirectionDegrees,WindSpeedMPH,WindSpeedGustMPH,Humidity,HourlyPrecipIn,Conditions,Clouds,dailyrainin,SoftwareType,DateUTC
2013-08-23 00:10:00,62.4,58.0,29.80,West,280,0.0,1.0,85,0.00,,,0.00,weatherlink.com 1.10,2013-08-23 07:10:00,
2013-08-23 00:25:00,62.3,57.0,29.80,East,100,1.0,2.0,83,0.00,,,0.00,weatherlink.com 1.10,2013-08-23 07:25:00,
2013-08-23 00:40:00,61.8,57.0,29.81,South,191,0.0,1.0,84,0.00,,,0.00,weatherlink.com 1.10,2013-08-23 07:40:00,
2013-08-23 00:55:00,61.8,57.0,29.81,West,259,0.0,0.0,84,0.00,,,0.00,weatherlink.com 1.10,2013-08-23 07:55:00,
2013-08-23 01:10:00,61.6,57.0,29.81,West,274,0.0,2.0,84,0.00,,,0.00,weatherlink.com 1.10,2013-08-23 08:10:00,
2013-08-23 01:25:00,61.6,57.0,29.81,ENE,67,0.0,1.0,86,0.00,,,0.00,weatherlink.com 1.10,2013-08-23 08:25:00,
2013-08-23 01:40:00,61.4,57.0,29.81,West,278,1.0,1.0,86,0.00,,,0.00,weatherlink.com 1.10,2013-08-23 08:40:00,
2013-08-23 01:55:00,61.2,57.0,29.81,West,274,0.0,1.0,86,0.00,,,0.00,weatherlink.com 1.10,2013-08-23 08:55:00,
2013-08-23 02:10:00,61.2,57.0,29.82,West,263,0.0,1.0,86,0.00,,,0.00,weatherlink.com 1.10,2013-08-23 09:10:00,
2013-08-23 02:25:00,61.2,57.0,29.82,SSE,158,0.0,2.0,87,0.00,,,0.00,weatherlink.com 1.10,2013-08-23 09:25:00,
2013-08-23 02:40:00,61.3,57.0,29.83,East,95,3.0,3.0,87,0.00,,,0.00,weatherlink.com 1.10,2013-08-23 09:40:00,
2013-08-23 02:55:00,61.1,57.0,29.83,SSE,163,0.0,2.0,87,0.00,,,0.00,weatherlink.com 1.10,2013-08-23 09:55:00,
2013-08-23 03:10:00,61.0,57.0,29.83,SE,127,2.0,5.0,87,0.00,,,0.00,weatherlink.com 1.10,2013-08-23 10:10:00,
2013-08-23 03:25:00,60.9,57.0,29.83,SE,139,1.0,4.0,87,0.00,,,0.00,weatherlink.com 1.10,2013-08-23 10:25:00,
2013-08-23 03:40:00,60.7,57.0,29.84,SSE,150,3.0,4.0,87,0.00,,,0.00,weatherlink.com 1.10,2013-08-23 10:40:00,
2013-08-23 03:55:00,60.6,57.0,29.83,SE,142,1.0,3.0,88,0.00,,,0.00,weatherlink.com 1.10,2013-08-23 10:55:00,
2013-08-23 04:10:00,60.6,57.0,29.83,SSE,148,0.0,2.0,88,0.00,,,0.00,weatherlink.com 1.10,2013-08-23 11:10:00,
2013-08-23 04:25:00,60.7,57.0,29.83,ESE,122,2.0,2.0,88,0.00,,,0.00,weatherlink.com 1.10,2013-08-23 11:25:00,
2013-08-23 04:40:00,60.6,57.0,29.83,SE,134,0.0,0.0,89,0.00,,,0.00,weatherlink.com 1.10,2013-08-23 11:40:00,
2013-08-23 04:55:00,60.5,57.0,29.83,SE,134,0.0,0.0,89,0.00,,,0.00,weatherlink.com 1.10,2013-08-23 11:55:00,
2013-08-23 05:10:00,60.4,57.0,29.83,SE,134,0.0,0.0,89,0.00,,,0.00,weatherlink.com 1.10,2013-08-23 12:10:00,
2013-08-23 05:25:00,60.4,57.0,29.83,SE,134,0.0,0.0,89,0.00,,,0.00,weatherlink.com 1.10,2013-08-23 12:25:00,
2013-08-23 05:40:00,60.3,57.0,29.83,SE,134,0.0,0.0,90,0.00,,,0.00,weatherlink.com 1.10,2013-08-23 12:40:00,
2013-08-23 05:55:00,60.3,57.0,29.83,SE,134,0.0,0.0,90,0.00,,,0.00,weatherlink.com 1.10,2013-08-23 12:55:00,
2013-08-23 06:10:00,60.2,57.0,29.83,SE,134,0.0,0.0,90,0.00,,,0.00,weatherlink.com 1.10,2013-08-23 13:10:00,
2013-08-23 06:25:00,60.3,57.0,29.83,SSE,164,4.0,5.0,89,0.00,,,0.00,weatherlink.com 1.10,2013-08-23 13:25:00,
2013-08-23 06:40:00,60.6,57.0,29.83,West,267,0.0,4.0,89,0.00,,,0.00,weatherlink.com 1.10,2013-08-23 13:40:00,
2013-08-23 06:55:00,60.7,57.0,29.83,SW,232,0.0,0.0,88,0.00,,,0.00,weatherlink.com 1.10,2013-08-23 13:55:00,
2013-08-23 07:10:00,60.9,57.0,29.84,South,174,1.0,5.0,88,0.00,,,0.00,weatherlink.com 1.10,2013-08-23 14:10:00,
2013-08-23 07:25:00,61.0,58.0,29.84,SW,221,2.0,6.0,88,0.00,,,0.00,weatherlink.com 1.10,2013-08-23 14:25:00,
2013-08-23 07:40:00,61.1,57.0,29.84,SSE,162,3.0,4.0,87,0.00,,,0.00,weatherlink.com 1.10,2013-08-23 14:40:00,
2013-08-23 07:55:00,61.3,57.0,29.84,SW,236,3.0,7.0,87,0.00,,,0.00,weatherlink.com 1.10,2013-08-23 14:55:00,
2013-08-23 08:10:00,61.5,57.0,29.84,SSE,158,2.0,4.0,86,0.00,,,0.00,weatherlink.com 1.10,2013-08-23 15:10:00,
2013-08-23 08:25:00,61.7,58.0,29.84,SE,140,0.0,3.0,86,0.00,,,0.00,weatherlink.com 1.10,2013-08-23 15:25:00,
2013-08-23 08:40:00,61.8,57.0,29.84,South,172,0.0,2.0,85,0.00,,,0.00,weatherlink.com 1.10,2013-08-23 15:40:00,
2013-08-23 08:55:00,61.9,57.0,29.85,SSW,210,0.0,1.0,85,0.00,,,0.00,weatherlink.com 1.10,2013-08-23 15:55:00,
2013-08-23 09:10:00,62.1,58.0,29.85,East,91,1.0,2.0,85,0.00,,,0.00,weatherlink.com 1.10,2013-08-23 16:10:00,
2013-08-23 09:25:00,62.2,57.0,29.85,East,90,1.0,1.0,84,0.00,,,0.00,weatherlink.com 1.10,2013-08-23 16:25:00,
2013-08-23 09:40:00,62.4,58.0,29.85,East,84,1.0,2.0,84,0.00,,,0.00,weatherlink.com 1.10,2013-08-23 16:40:00,
2013-08-23 09:55:00,63.3,58.0,29.85,SW,225,0.0,12.0,82,0.00,,,0.00,weatherlink.com 1.10,2013-08-23 16:55:00,
2013-08-23 10:10:00,63.8,57.0,29.86,South,173,7.0,8.0,79,0.00,,,0.00,weatherlink.com 1.10,2013-08-23 17:10:00,
2013-08-23 10:25:00,64.3,57.0,29.86,SSE,156,5.0,9.0,78,0.00,,,0.00,weatherlink.com 1.10,2013-08-23 17:25:00,
2013-08-23 10:40:00,64.9,58.0,29.86,SSW,203,1.0,6.0,78,0.00,,,0.00,weatherlink.com 1.10,2013-08-23 17:40:00,
2013-08-23 10:56:00,65.8,58.0,29.86,ENE,67,0.0,2.0,75,0.00,,,0.00,weatherlink.com 1.10,2013-08-23 17:56:00,
2013-08-23 11:11:00,66.2,58.0,29.85,NE,53,3.0,4.0,74,0.00,,,0.00,weatherlink.com 1.10,2013-08-23 18:11:00,
2013-08-23 11:26:00,65.6,59.0,29.85,NNE,33,3.0,4.0,78,0.00,,,0.00,weatherlink.com 1.10,2013-08-23 18:26:00,
2013-08-23 11:41:00,68.1,58.0,29.84,South,170,4.0,15.0,70,0.00,,,0.00,weatherlink.com 1.10,2013-08-23 18:41:00,
2013-08-23 11:56:00,68.9,57.0,29.84,SSE,165,7.0,15.0,67,0.00,,,0.00,weatherlink.com 1.10,2013-08-23 18:56:00,
2013-08-23 12:11:00,70.3,57.0,29.84,SE,141,7.0,16.0,64,0.00,,,0.00,weatherlink.com 1.10,2013-08-23 19:11:00,
2013-08-23 12:26:00,70.3,57.0,29.84,SSE,148,10.0,19.0,64,0.00,,,0.00,weatherlink.com 1.10,2013-08-23 19:26:00,
2013-08-23 12:41:00,70.2,57.0,29.84,SE,146,9.0,21.0,63,0.00,,,0.00,weatherlink.com 1.10,2013-08-23 19:41:00,
2013-08-23 12:56:00,71.3,58.0,29.84,SSE,160,15.0,15.0,64,0.00,,,0.00,weatherlink.com 1.10,2013-08-23 19:56:00,
2013-08-23 13:11:00,71.2,57.0,29.84,SSE,152,9.0,20.0,62,0.00,,,0.00,weatherlink.com 1.10,2013-08-23 20:11:00,
2013-08-23 13:26:00,71.6,57.0,29.83,South,184,11.0,17.0,61,0.00,,,0.00,weatherlink.com 1.10,2013-08-23 20:26:00,
2013-08-23 13:41:00,71.3,57.0,29.83,South,169,11.0,23.0,62,0.00,,,0.00,weatherlink.com 1.10,2013-08-23 20:41:00,
2013-08-23 13:56:00,71.9,58.0,29.84,South,179,6.0,19.0,62,0.00,,,0.00,weatherlink.com 1.10,2013-08-23 20:56:00,
2013-08-23 14:11:00,71.6,58.0,29.84,South,169,15.0,20.0,62,0.00,,,0.00,weatherlink.com 1.10,2013-08-23 21:11:00,
2013-08-23 14:26:00,71.4,57.0,29.84,SSE,159,9.0,21.0,61,0.00,,,0.00,weatherlink.com 1.10,2013-08-23 21:26:00,
2013-08-23 14:41:00,71.1,57.0,29.84,South,174,8.0,16.0,61,0.00,,,0.00,weatherlink.com 1.10,2013-08-23 21:41:00,
2013-08-23 14:56:00,72.0,57.0,29.84,SSE,158,11.0,15.0,60,0.00,,,0.00,weatherlink.com 1.10,2013-08-23 21:56:00,
2013-08-23 15:11:00,72.9,57.0,29.83,SSE,158,13.0,20.0,58,0.00,,,0.00,weatherlink.com 1.10,2013-08-23 22:11:00,
2013-08-23 15:26:00,72.8,57.0,29.83,SSE,164,10.0,15.0,57,0.00,,,0.00,weatherlink.com 1.10,2013-08-23 22:26:00,
2013-08-23 15:41:00,72.9,56.0,29.83,SSE,163,8.0,11.0,56,0.00,,,0.00,weatherlink.com 1.10,2013-08-23 22:41:00,
2013-08-23 15:56:00,72.8,56.0,29.83,South,177,7.0,16.0,56,0.00,,,0.00,weatherlink.com 1.10,2013-08-23 22:56:00,
2013-08-23 16:11:00,73.5,56.0,29.83,South,177,9.0,14.0,55,0.00,,,0.00,weatherlink.com 1.10,2013-08-23 23:11:00,
2013-08-23 16:26:00,73.9,56.0,29.83,SE,134,4.0,19.0,53,0.00,,,0.00,weatherlink.com 1.10,2013-08-23 23:26:00,
2013-08-23 16:41:00,73.2,55.0,29.83,SE,136,8.0,17.0,53,0.00,,,0.00,weatherlink.com 1.10,2013-08-23 23:41:00,
2013-08-23 16:56:00,72.9,55.0,29.83,SSE,152,9.0,20.0,54,0.00,,,0.00,weatherlink.com 1.10,2013-08-23 23:56:00,
2013-08-23 17:11:00,72.6,55.0,29.83,South,169,11.0,19.0,54,0.00,,,0.00,weatherlink.com 1.10,2013-08-24 00:11:00,
2013-08-23 17:26:00,72.3,55.0,29.82,South,184,7.0,15.0,54,0.00,,,0.00,weatherlink.com 1.10,2013-08-24 00:26:00,
2013-08-23 17:41:00,72.8,55.0,29.82,South,183,6.0,17.0,53,0.00,,,0.00,weatherlink.com 1.10,2013-08-24 00:41:00,
2013-08-23 17:56:00,72.1,54.0,29.83,SSE,158,9.0,17.0,54,0.00,,,0.00,weatherlink.com 1.10,2013-08-24 00:56:00,
2013-08-23 18:11:00,71.7,55.0,29.82,South,176,11.0,18.0,56,0.00,,,0.00,weatherlink.com 1.10,2013-08-24 01:11:00,
2013-08-23 18:26:00,71.0,55.0,29.83,South,176,6.0,11.0,58,0.00,,,0.00,weatherlink.com 1.10,2013-08-24 01:26:00,
2013-08-23 18:41:00,70.3,56.0,29.82,South,174,5.0,8.0,61,0.00,,,0.00,weatherlink.com 1.10,2013-08-24 01:41:00,
2013-08-23 18:56:00,69.8,56.0,29.82,South,177,2.0,12.0,62,0.00,,,0.00,weatherlink.com 1.10,2013-08-24 01:56:00,
2013-08-23 19:11:00,69.2,56.0,29.82,SSE,156,5.0,13.0,64,0.00,,,0.00,weatherlink.com 1.10,2013-08-24 02:11:00,
2013-08-23 19:26:00,68.4,56.0,29.82,South,174,7.0,21.0,65,0.00,,,0.00,weatherlink.com 1.10,2013-08-24 02:26:00,
2013-08-23 19:41:00,67.8,56.0,29.83,South,184,7.0,14.0,67,0.00,,,0.00,weatherlink.com 1.10,2013-08-24 02:41:00,
2013-08-23 19:56:00,67.2,57.0,29.82,WSW,240,1.0,15.0,71,0.00,,,0.00,weatherlink.com 1.10,2013-08-24 02:56:00,
2013-08-23 20:12:00,66.7,57.0,29.82,SSE,155,6.0,12.0,72,0.00,,,0.00,weatherlink.com 1.10,2013-08-24 03:12:00,
2013-08-23 20:26:00,66.4,58.0,29.83,South,183,4.0,9.0,73,0.00,,,0.00,weatherlink.com 1.10,2013-08-24 03:26:00,
2013-08-23 20:41:00,66.2,57.0,29.83,SSW,210,2.0,10.0,73,0.00,,,0.00,weatherlink.com 1.10,2013-08-24 03:41:00,
2013-08-23 20:56:00,66.0,58.0,29.83,SSE,168,7.0,12.0,74,0.00,,,0.00,weatherlink.com 1.10,2013-08-24 03:56:00,
2013-08-23 21:11:00,65.8,57.0,29.83,South,177,8.0,14.0,74,0.00,,,0.00,weatherlink.com 1.10,2013-08-24 04:11:00,
2013-08-23 21:26:00,65.6,58.0,29.84,SSE,156,4.0,10.0,75,0.00,,,0.00,weatherlink.com 1.10,2013-08-24 04:26:00,
2013-08-23 21:41:00,65.4,57.0,29.84,SE,129,2.0,10.0,75,0.00,,,0.00,weatherlink.com 1.10,2013-08-24 04:41:00,
2013-08-23 21:56:00,65.2,57.0,29.84,South,170,3.0,4.0,76,0.00,,,0.00,weatherlink.com 1.10,2013-08-24 04:56:00,
2013-08-23 22:11:00,65.0,57.0,29.84,North,353,0.0,2.0,76,0.00,,,0.00,weatherlink.com 1.10,2013-08-24 05:11:00,
2013-08-23 22:26:00,64.9,58.0,29.84,ENE,68,2.0,2.0,78,0.00,,,0.00,weatherlink.com 1.10,2013-08-24 05:26:00,
2013-08-23 22:41:00,64.7,58.0,29.85,ESE,111,0.0,1.0,79,0.00,,,0.00,weatherlink.com 1.10,2013-08-24 05:41:00,
2013-08-23 22:56:00,64.3,58.0,29.85,ESE,112,0.0,0.0,79,0.00,,,0.00,weatherlink.com 1.10,2013-08-24 05:56:00,
2013-08-23 23:14:00,63.7,58.0,29.85,NNE,23,1.0,3.0,82,0.00,,,0.00,weatherlink.com 1.10,2013-08-24 06:14:00,
2013-08-23 23:26:00,63.0,59.0,29.85,NNE,22,0.0,1.0,85,0.00,,,0.00,weatherlink.com 1.10,2013-08-24 06:26:00,
2013-08-23 23:41:00,62.8,59.0,29.86,NNE,30,6.0,6.0,86,0.00,,,0.00,weatherlink.com 1.10,2013-08-24 06:41:00,
2013-08-23 23:56:00,62.7,58.0,29.86,NE,49,3.0,4.0,85,0.00,,,0.00,weatherlink.com 1.10,2013-08-24 06:56:00,